FENGYUN 1C DEB, 30377

Orbit data source: Space-Track

FENGYUN 1C DEB, 30377 is space debris in SSO originally from a launch on Mon, 10 May 1999 UTC launched from the Taiyaun Space Center, China (TSC). Fengyun 1C debris stems from the Chinese weather satellite Fengyun-1C, which was intentionally destroyed by a Chinese anti-satellite missile in 2007. This event dramatically increased the amount of space debris, with thousands of trackable fragments posing hazards to satellites and human spaceflight. The Fengyun 1C debris cloud has become a focal point in discussions about space sustainability and the need for international regulations to prevent the creation of new debris.

Loading next visibility...
Identifier
30377, 1999-025ACQ
Orbit
SSO
Country
Flag of CNCN / PRC
Related business
Manufacturer
Unknown
Mission
Spacecraft
Bus & Motor
Unknown
Mass
Unknown
Launch date (UTC)
1999-05-10 (27 years ago)
Launch vehicle
Unknown
Launch site
Taiyaun Space Center, China (TSC)
Object type
Payload
Rocket body
Debris
Shape & HBR
Unknown shape, 0.1 m
Radar Cross Section
Medium (>0.1 m² and <1 m²)

Expand to show TLE details & history
Last TLE update: 11 hours ago

TLE from 11 hours ago
0 FENGYUN 1C DEB
1 30377U 99025ACQ 26169.03006834  .00000006  00000-0  30756-4 0  9994
2 30377  98.8800 188.0408 0119304 108.4212 308.7639 13.99380264988264
Epoch: 2026-06-18T00:43Z
TLE epoch observation values (Epoch: 2026-06-18T00:43:17.904Z)
Latitude
55.20035°
Longitude
-101.98432°
Altitude
851.335 km
Speed
7.46 km/s
True Right ascension
11h 40m 28s
True Declination
55° 02' 28"
Sunlit
Object was in daylight at epoch
Visualization orbit readout
Latitude
Unknown
Longitude
Unknown
Altitude
Unknown
Speed
Unknown
Apparent Right ascension
Unknown
Apparent Declination
Unknown
Sunlit
N/A
Visualization observer readout
Local Sidereal Time
22:39:33
Azimuth
Unknown
Elevation
Unknown
Doppler factor
Unknown
Orbital elements
Apogee altitude
979.885 km
Perigee altitude
806.387 km
Semi-major axis
7,271.273 km
Eccentricity
0.01193
Inclination
98.88°
RAAN
188.0408°
Arg. of periapsis
108.4212°
True anomaly
307.68793°
Mean anomaly
308.7639°
Eccentric anomaly
308.22692°
Mean motion
3.50048 °/min
Orbital period
102.84 mins
BSTAR
0.000030756
Loading maneuver chart data...
Computing Atmospheric mass density...

Documentation

Showing up to 5 results
|